Regional Weather Roundup
Issued by NWS

Home | Current Version | Previous Version | Graphics & Text | Print | Product List | Glossary On
Versions: 1 2 3 4 5 6 7 8 9 10 11 12 13 14 15 16 17 18 19 20 21 22 23 24 25 26 27 28 29 30 31 32 33 34 35 36 37 38 39 40 41 42 43 44 45 46 47 48 49 50
000
ASUS43 KBIS 272102
RWRND

NORTH DAKOTA REGIONAL WEATHER ROUNDUP
NATIONAL WEATHER SERVICE BISMARCK ND
400 PM CDT THU APR 27 2017

NOTE: "FAIR" INDICATES FEW OR NO CLOUDS BELOW 12,000 FEET WITH NO
SIGNIFICANT WEATHER AND/OR OBSTRUCTIONS TO VISIBILITY.


NDZ001>003-009>011-017-272200-
NORTHWEST NORTH DAKOTA

CITY           SKY/WX    TMP DP  RH WIND       PRES   REMARKS
WILLISTON      FAIR      53  18  25 SE9       29.73S
MINOT          FAIR      51  11  20 N12G21    29.73S
MINOT AFB      SUNNY     50  13  22 NE14      29.72F
$$

NDZ018>021-031>035-040>046-272200-
SOUTHWEST NORTH DAKOTA

CITY           SKY/WX    TMP DP  RH WIND       PRES   REMARKS
BISMARCK       FAIR      52  25  35 VRB6      29.71S
DICKINSON      FAIR      49  22  34 SE10      29.67S
GARRISON         N/A     49  21  33 NE8       29.71F
HETTINGER ARPT SUNNY     49  24  37 VRB6G20   29.68S
$$

NDZ004>008-012>016-024-026-027-054-272200-
NORTHEAST NORTH DAKOTA

CITY           SKY/WX    TMP DP  RH WIND       PRES   REMARKS
GRAND FORKS    PTSUNNY   47  33  58 N20G25    29.65F
GRND FRKS AFB  PTSUNNY   45  30  57 N18G25    29.66F
DEVILS LAKE    CLOUDY    47  28  47 N17       29.69S
$$

NDZ022-023-025-028>030-036>039-047>053-272200-
SOUTHEAST NORTH DAKOTA

CITY           SKY/WX    TMP DP  RH WIND       PRES   REMARKS
FARGO          SUNNY     37  27  67 N12       29.68F
JAMESTOWN      FAIR      47  30  51 N20G29    29.67F
$$




USA.gov is the U.S. government's official web portal to all federal, state and local government web resources and services.